Hlavní strana
METAR-TAF:

METAR-TAF

Letiště :

Selma, Alabama, Spojené státy americké

zeměpisná šířka: 32-20-38N, zeměpisná délka: 086-59-16W, výška: 51 m

Aktuální stav počasí

Zpráva byla vytvořena před 41 minutami, v 17:55 UTC
Severní vítr 16 kt
Teplota 12°C
Vlhkost vzduchu 54%
Tlak 1022 hPa
Viditelnost: 16.1 km

METAR: KSEM 151755Z AUTO 36016KT 10SM 12/03 A3017 RMK AO2

Čas: 12:36 (18:36 UTC)


TAF: chybějící

Stav a předpovědi počasí z více než 4 000 letišť (zprávy METAR a TAF).

Červené a žluté tečky na mapě představují dostupné meteorologické stanice.

Když kurzor umístíte na tečku, zobrazí se název stanice.

Pak kliknutím zobrazíte stav a předpověď počasí.

Chcete-li změnit mapu, kliknutím na zelené tlačítko se znaménkem +mapu přiblížíte, kliknutím na zelené tlačítko se znaménkem – mapu oddálíte a kliknutím na zelené šipky přejdete na sousední mapy.


METAR-TAF: